EW4496 Weather Reports


time (UTC)temp
F
wind
direction
speed
knots
gust
knots
rain 1hr
in
rain 24hr
in
rain mn
in
humidity
%
barometer
mb
20260904173128 66 195 0.0 5.2 0.01 0.02 0.02 76 1013.6
20260904171611 65 195 0.0 3.5 0.01 0.02 0.02 78 1013.4
20260904170108 65 276 0.0 5.2 0.01 0.02 0.02 78 1013.3
20260904164504 64 200 0.9 4.3 0.00 0.01 0.01 80 1013.2
20260904163018 62 148 0.0 2.6 0.00 0.01 0.01 85 1013.2
20260904161605 61 229 0.0 2.6 0.00 0.01 0.01 87 1013.1
20260904160106 60 266 0.0 3.5 0.00 0.01 0.01 88 1013.1
20260904154603 60 335 0.0 0.9 0.00 0.01 0.01 89 1013.0
20260904153103 59 290 0.9 5.2 0.00 0.01 0.01 89 1012.9
20260904151503 60 247 0.0 4.3 0.00 0.01 0.01 90 1012.9
20260904150011 60 353 0.0 2.6 0.00 0.01 0.01 90 1012.9
20260904144504 60 285 0.0 3.5 0.00 0.01 0.01 91 1012.7
20260904143003 60 297 0.0 3.5 0.00 0.01 0.01 91 1012.4
20260904141503 60 282 0.0 2.6 0.00 0.01 0.01 91 1012.2
20260904140003 60 252 0.9 3.5 0.00 0.01 0.01 91 1012.0
20260904134510 60 240 0.0 1.7 0.00 0.01 0.01 91 1011.8
20260904133048 60 251 0.0 0.0 0.00 0.01 0.01 91 1011.7
20260904131521 60 276 0.0 0.9 0.00 0.01 0.01 91 1011.7
20260904130030 60 247 0.9 0.0 0.00 0.00 0.01 90 1011.5
20260904124528 60 267 0.0 3.5 0.00 0.01 0.01 90 1011.5
20260904123032 61 259 0.0 4.3 0.00 0.01 0.01 90 1011.4
20260904121543 61 295 0.0 6.1 0.00 0.01 0.01 90 1011.2
20260904120050 61 241 0.0 2.6 0.00 0.01 0.01 91 1011.2
20260904114548 61 244 0.0 2.6 0.00 0.01 0.01 91 1011.2
20260904113050 61 298 0.0 2.6 0.00 0.01 0.01 91 1011.1
20260904111547 61 243 0.0 0.9 0.00 0.01 0.01 91 1011.1
20260904110047 61 256 0.0 1.7 0.00 0.01 0.01 91 1011.0
20260904104549 61 248 0.0 2.6 0.00 0.01 0.01 91 1010.9
20260904103047 62 270 0.0 1.7 0.00 0.01 0.01 92 1010.9
20260904101546 62 309 0.0 0.9 0.00 0.01 0.01 92 1010.8
20260904100050 62 310 0.0 0.0 0.00 0.01 0.01 92 1010.7
20260904094554 62 266 0.0 0.9 0.00 0.01 0.01 92 1010.8
20260904093051 61 341 0.0 0.9 0.00 0.01 0.01 92 1010.6
20260904091547 62 300 0.0 2.6 0.00 0.01 0.01 92 1010.6
20260904090047 62 310 0.0 2.6 0.00 0.01 0.01 92 1010.7
20260904084547 62 347 0.0 2.6 0.01 0.01 0.01 92 1010.7
20260904083048 62 354 0.0 3.5 0.01 0.01 0.01 91 1010.8
20260904081547 62 293 0.0 3.5 0.01 0.01 0.01 90 1010.7
20260904080046 63 221 0.9 3.5 0.01 0.01 0.01 88 1010.7
20260904074546 64 324 0.0 2.6 0.00 0.00 0.00 85 1010.9
20260904073049 65 317 0.0 2.6 0.00 0.00 0.00 80 1011.0
20260904071517 65 326 0.0 5.2 0.00 0.00 0.00 79 1010.9
20260904070041 65 342 0.0 4.3 0.00 0.00 0.00 78 1010.9
20260904064541 66 9 0.0 2.6 0.00 0.00 0.00 77 1010.8
20260904063041 66 264 0.0 3.5 0.00 0.00 0.00 77 1010.7
20260904061542 66 274 0.9 4.3 0.00 0.00 0.00 77 1010.8
20260904060056 67 294 0.0 4.3 0.00 0.00 0.00 77 1010.8
20260904054555 67 311 0.0 5.2 0.00 0.00 0.00 77 1010.8
20260904053055 67 328 0.9 6.1 0.00 0.00 0.00 77 1010.8
20260904051605 67 323 0.0 2.6 0.00 0.00 0.00 78 1011.0
20260904050057 67 316 0.0 3.5 0.00 0.00 0.00 77 1010.9
20260904044555 67 262 0.0 1.7 0.00 0.00 0.00 77 1010.8
20260904043111 67 256 0.0 2.6 0.00 0.00 0.00 77 1010.9
20260904041609 67 262 0.0 2.6 0.00 0.00 0.00 77 1010.9
20260904040110 67 321 0.0 0.0 0.00 0.00 0.00 77 1010.9
20260904034513 68 307 0.0 0.9 0.00 0.00 0.00 76 1010.8
20260904033010 68 304 0.0 1.7 0.00 0.00 0.00 76 1010.7
20260904031510 68 345 0.0 0.9 0.00 0.00 0.00 75 1010.5
20260904030010 68 7 0.0 1.7 0.00 0.00 0.00 74 1010.4
20260904024525 68 325 0.9 4.3 0.00 0.00 0.00 74 1010.5
20260904023025 69 354 0.0 6.1 0.00 0.00 0.00 73 1010.6
20260904021527 69 4 0.9 4.3 0.00 0.00 0.00 72 1010.6
20260904020025 69 7 0.9 7.0 0.00 0.00 0.00 71 1010.6
20260904014553 70 356 0.9 6.1 0.00 0.00 0.00 70 1010.7
20260904013046 71 16 0.9 6.1 0.00 0.00 0.00 69 1010.7
20260904011541 71 24 0.0 5.2 0.00 0.00 0.00 68 1010.7
20260904010042 71 175 1.7 10.4 0.00 0.00 0.00 67 1010.8
20260904004554 72 351 2.6 10.4 0.00 0.00 0.00 65 1010.8
20260904003054 74 344 1.7 6.1 0.00 0.00 0.00 63 1010.8
20260904001554 74 349 2.6 12.2 0.00 0.00 0.00 62 1010.8
20260904000109 74 275 0.9 9.6 0.00 0.00 0.00 62 1010.8
20260903234609 74 34 3.5 12.2 0.00 0.00 0.00 62 1010.9
20260903233111 75 59 0.9 10.4 0.00 0.00 0.00 61 1010.9
20260903231609 76 351 1.7 7.0 0.00 0.00 0.00 57 1011.0
20260903230116 76 349 2.6 10.4 0.00 0.00 0.00 57 1011.1
20260903224523 77 327 0.9 5.2 0.00 0.00 0.00 56 1011.2
20260903223011 76 356 0.9 7.0 0.00 0.00 0.00 57 1011.3
20260903221509 76 11 0.0 6.1 0.00 0.00 0.00 56 1011.4
20260903220008 77 332 1.7 7.8 0.00 0.00 0.00 55 1011.8
20260903214513 76 15 0.0 7.8 0.00 0.00 0.00 57 1011.9
20260903213028 76 33 0.9 8.7 0.00 0.00 0.00 57 1012.1
20260903211523 76 20 1.7 11.3 0.00 0.00 0.00 56 1012.2
20260903210024 76 25 1.7 8.7 0.00 0.00 0.00 55 1012.1
20260903204525 76 317 1.7 8.7 0.00 0.00 0.00 56 1012.2
20260903203023 76 329 3.5 8.7 0.00 0.00 0.00 55 1012.4
20260903201524 76 3 0.9 6.1 0.00 0.00 0.00 56 1012.3
20260903200025 76 300 1.7 5.2 0.00 0.00 0.00 56 1012.6
20260903194523 77 340 1.7 7.8 0.00 0.00 0.00 54 1012.7
20260903193038 77 6 0.9 6.1 0.00 0.00 0.00 53 1012.9
20260903191540 76 359 0.9 5.2 0.00 0.00 0.00 55 1013.1
20260903190037 75 343 0.9 6.1 0.00 0.00 0.00 57 1013.2
20260903184538 76 288 0.9 9.6 0.00 0.00 0.00 58 1013.4
20260903183111 75 219 0.0 5.2 0.00 0.00 0.00 59 1013.5
20260903181610 73 331 0.0 5.2 0.00 0.00 0.00 63 1013.7
20260903180107 71 340 0.0 5.2 0.00 0.00 0.00 65 1013.7
20260903174607 71 286 0.9 5.2 0.00 0.00 0.00 66 1013.8